Theta_e
351 350 349 348 347 346 347 349 350 350 349 350 350 351 350 350 349 349 350 349 348 350 349 349 349 347 346 347 344 343 343 344 342 344 343 343 342 340 340 341 340 341 340 343 345 346 347 346 345 344 344 344 346 343 347 343 342 337 340 337 341 334
350 348 348 347 347 345 348 347 350 351 350 352 351 352 352 350 351 352 350 350 349 345 345 345 345 345 347 348 347 345 344 344 344 344 344 343 343 342 340 340 339 340 342 341 344 349 347 347 345 344 345 345 345 345 345 343 339 340 334 340 340 338
348 347 346 347 344 343 345 344 348 347 348 347 352 350 348 348 349 347 346 345 345 344 343 342 345 344 348 348 348 346 345 345 345 345 344 344 344 344 343 339 342 340 340 341 343 348 347 345 346 345 345 346 345 347 345 343 343 342 337 340 339 341
346 346 345 344 342 344 342 343 344 345 345 347 347 346 346 347 346 346 346 346 345 346 345 346 341 341 343 346 348 347 346 346 345 344 344 344 344 342 342 340 339 340 341 341 342 344 344 345 347 345 345 346 344 343 342 343 338 340 341 339 339 342
345 343 344 342 342 340 344 343 343 344 345 342 343 345 346 347 347 346 345 348 347 348 349 347 349 349 347 347 345 347 347 347 347 345 345 347 346 345 343 335 333 336 338 337 340 342 343 345 348 346 346 344 344 344 343 342 339 337 340 343 343 342
344 343 343 341 341 342 343 343 344 343 343 344 343 343 343 345 345 346 347 349 351 351 349 348 348 348 349 350 347 346 346 345 344 342 338 342 341 342 344 340 335 331 334 341 340 340 341 341 342 343 342 344 343 343 342 340 341 342 342 341 346 344
342 342 343 342 343 341 340 342 344 343 343 343 343 342 342 344 346 347 350 352 350 349 351 351 348 350 350 352 346 349 349 348 351 345 342 342 342 341 339 339 337 337 337 336 338 339 339 340 339 337 339 338 339 339 340 339 337 339 343 341 345 344
341 341 342 344 343 340 344 344 344 342 343 342 343 345 345 348 348 349 352 351 353 349 347 346 346 348 348 346 349 348 349 349 349 348 347 348 343 341 340 340 341 337 335 335 335 338 338 338 340 340 338 339 338 340 340 340 342 342 341 341 344 345
341 341 344 343 341 342 343 345 344 345 344 344 347 348 348 349 349 350 350 350 349 349 347 347 346 347 350 348 352 349 354 349 349 348 351 349 345 344 343 341 343 338 340 337 338 341 338 338 342 343 342 338 338 340 342 342 341 339 341 341 342 347
342 343 344 344 344 345 346 344 346 346 344 346 347 349 348 347 346 345 349 349 348 349 350 348 347 349 348 347 347 349 351 347 349 348 349 347 351 345 344 343 342 341 338 339 337 337 338 339 338 340 339 339 340 340 342 342 341 339 340 341 341 347
343 345 344 342 346 347 347 347 348 348 347 347 349 350 350 349 350 348 349 351 349 349 350 348 348 347 346 345 347 348 348 349 347 349 350 348 350 351 348 346 345 343 341 338 339 338 338 339 339 337 339 338 340 341 341 342 341 341 340 339 340 343
344 345 345 345 347 347 349 349 350 350 348 350 351 349 348 351 348 348 350 351 351 351 349 349 349 349 348 346 346 347 348 349 347 348 351 349 349 350 348 347 347 347 348 346 342 340 340 337 337 336 335 336 338 339 339 339 339 339 340 341 342 344
344 346 345 347 347 348 350 350 351 349 348 347 347 346 345 346 347 349 351 350 350 349 351 350 350 349 348 347 347 347 347 349 349 350 351 350 350 350 348 346 346 346 345 346 344 344 341 341 339 337 338 338 337 335 336 339 342 340 340 341 341 345
346 345 346 348 349 346 349 350 351 351 350 349 347 346 347 348 348 347 349 349 349 349 349 349 348 347 346 347 348 347 347 347 348 350 351 351 349 347 344 344 344 343 342 342 342 342 343 340 340 340 343 342 341 341 341 340 343 341 340 342 341 341
347 347 346 348 346 347 349 347 346 345 348 351 350 349 349 350 348 347 348 348 349 348 348 348 347 348 344 345 345 345 346 346 349 350 347 349 346 347 346 345 345 342 344 344 342 342 340 341 340 340 342 342 341 341 342 342 346 341 344 345 347 344
348 348 348 347 347 347 347 347 348 347 350 351 348 350 349 349 348 347 348 347 347 347 347 348 348 349 347 345 344 344 344 348 348 348 347 348 347 345 345 345 346 345 343 342 342 341 343 342 341 340 342 342 343 342 342 342 341 343 343 342 345 345
345 342 344 345 347 347 346 346 348 350 349 350 348 349 349 350 349 348 346 346 348 349 348 347 348 348 347 346 345 345 345 347 349 347 348 346 345 345 344 343 344 345 344 341 340 340 342 342 342 342 343 343 343 343 343 343 344 343 345 342 342 344
339 340 344 343 346 346 347 350 350 349 349 349 349 349 349 349 349 347 348 347 348 349 348 348 348 348 347 344 344 345 345 346 346 347 344 343 340 344 343 343 340 342 343 342 340 340 341 341 341 339 338 339 341 341 341 342 343 342 342 341 340 342
335 338 340 342 344 347 349 349 350 349 349 349 350 350 348 346 346 347 346 345 345 345 345 348 348 347 346 344 344 344 344 343 344 344 344 343 342 342 342 343 341 341 343 343 340 340 340 339 337 337 337 338 339 340 340 342 343 342 342 342 342 341
336 337 339 340 343 346 345 341 343 345 342 343 345 345 347 345 346 344 344 344 343 344 343 344 344 347 345 343 344 344 344 344 343 343 341 341 339 339 340 339 339 338 337 337 338 338 338 336 336 337 336 337 338 339 339 340 343 343 343 342 342 342
336 337 336 338 337 341 339 343 344 343 341 342 341 343 343 344 344 343 343 342 342 342 342 342 343 344 344 344 344 343 343 342 341 341 339 338 339 339 339 339 338 338 336 335 335 336 337 337 334 332 334 334 335 337 339 339 340 342 341 342 342 340
337 335 336 339 339 342 340 342 340 339 340 340 340 338 338 340 341 342 343 342 342 342 342 341 341 341 342 342 341 340 342 340 338 338 338 338 339 337 338 337 337 335 336 333 333 335 335 335 331 328 327 328 330 332 336 337 340 340 340 340 341 341
336 336 335 337 341 338 340 343 342 340 340 339 341 341 339 339 340 340 340 341 341 340 339 339 340 339 339 339 339 338 338 339 338 337 336 336 337 337 337 336 336 334 333 335 333 335 335 335 329 331 331 327 323 324 328 334 337 338 338 339 339 340
336 335 335 338 338 338 342 342 342 341 341 339 336 338 339 339 338 338 337 338 338 339 337 336 336 335 335 336 336 336 336 336 335 334 333 331 331 331 332 332 331 331 331 329 329 330 335 335 333 330 323 324 325 324 319 323 327 332 335 335 337 337
337 335 337 338 341 342 341 340 340 339 338 337 337 337 335 335 335 334 333 334 334 335 334 333 333 332 332 331 332 332 333 332 331 332 331 328 328 327 329 330 329 328 328 326 325 328 331 333 334 335 329 324 323 320 321 325 327 328 333 332 333 331
333 335 338 339 339 340 340 338 337 334 332 332 331 331 330 330 331 330 329 332 331 331 331 331 329 329 329 329 329 329 329 329 329 329 327 327 327 326 327 328 328 327 326 327 326 325 326 330 330 330 333 330 329 322 322 325 325 318 330 332 332 332
334 336 337 339 336 338 338 338 337 336 335 332 330 331 332 333 332 331 331 330 329 329 328 327 327 326 327 327 328 328 327 328 328 327 326 326 325 325 326 327 327 326 326 326 325 323 324 324 327 328 328 328 328 328 327 324 320 323 319 325 329 330
337 336 338 338 339 339 337 336 336 335 334 333 331 329 331 331 331 330 328 327 328 326 325 324 325 325 325 325 326 326 326 326 325 326 324 323 323 323 325 326 327 326 326 326 325 323 321 323 320 322 324 324 325 325 326 327 326 322 320 318 320 326
334 335 336 336 337 336 335 335 334 333 331 330 330 328 328 329 328 327 325 325 325 325 324 323 322 323 323 322 322 322 322 322 322 321 321 321 321 322 322 323 322 322 323 322 324 323 321 319 320 319 318 320 321 322 322 324 323 323 318 316 316 318
332 333 334 334 334 334 334 333 332 331 330 328 328 328 328 326 326 325 324 323 323 322 321 321 321 320 321 320 320 321 320 320 320 319 319 319 319 319 321 321 321 321 321 320 320 319 318 317 317 317 318 318 317 317 318 318 319 319 320 319 314 314
329 330 331 332 332 332 331 331 330 329 328 327 326 326 325 324 324 323 323 322 321 320 320 319 320 320 320 319 319 319 319 318 318 319 318 318 318 318 319 320 320 321 320 318 317 317 317 316 316 315 315 314 314 314 314 313 314 315 315 314 314 314
328 328 328 329 330 328 328 327 327 326 325 326 325 323 322 321 322 321 322 320 319 319 318 318 319 318 318 318 318 317 318 317 316 317 316 318 318 318 319 317 317 318 318 318 317 317 316 314 314 313 314 314 314 314 314 313 313 313 313 312 312 312
325 326 326 326 327 327 325 325 325 324 323 323 323 322 321 320 320 319 319 319 318 316 317 316 316 316 316 316 316 316 316 314 315 315 316 316 316 317 318 316 315 316 316 316 315 316 314 314 313 312 311 313 314 314 313 314 313 312 313 312 312 309
324 325 325 325 325 324 323 323 324 323 322 322 321 321 320 319 319 319 318 317 317 316 315 316 315 315 315 315 315 315 315 315 315 314 315 315 316 316 316 313 314 314 314 316 316 316 315 315 314 314 314 312 312 312 313 314 313 313 311 310 309 308
322 323 323 322 323 322 321 322 322 322 321 320 319 318 318 318 318 317 316 317 317 316 315 315 313 314 315 315 314 314 314 314 313 314 314 314 314 315 315 313 312 313 313 315 315 314 313 314 313 313 314 312 312 313 313 312 313 313 312 311 310 309
321 321 321 320 320 320 319 319 320 319 319 319 318 318 317 317 317 317 317 316 316 316 315 314 314 314 313 314 313 312 312 312 312 313 313 313 313 313 313 313 311 312 312 314 313 312 312 313 312 313 313 313 312 312 312 311 312 312 312 312 311 311
320 320 320 319 319 319 318 318 317 317 318 318 317 316 315 316 316 316 316 316 314 314 315 314 313 314 313 312 312 312 312 311 311 312 313 312 312 312 312 312 311 310 311 312 312 311 311 311 312 312 312 312 311 311 310 312 311 311 312 312 311 310
Wind_Speed
10 11 12 11 10 9 9 10 10 11 11 12 11 12 12 12 10 10 9 9 8 6 5 5 6 5 11 7 8 8 6 5 4 4 3 3 3 2 1 1 1 3 3 3 3 5 7 6 7 5 8 10 10 8 8 2 3 2 3 4 3 7
9 11 11 10 8 8 8 10 10 10 10 11 11 11 10 9 9 7 8 7 5 3 2 4 4 6 5 9 8 8 7 6 6 5 4 4 4 4 3 2 2 4 5 5 6 6 7 7 6 7 9 10 8 7 5 4 2 4 1 3 6 9
10 10 11 10 8 8 10 8 9 8 7 8 10 9 8 7 6 5 5 2 1 2 1 3 1 2 6 7 7 7 7 8 9 8 9 8 8 7 6 4 4 5 7 8 7 6 5 5 6 9 9 7 7 7 1 2 4 2 5 3 5 13
10 9 8 8 8 8 8 8 7 6 6 6 6 6 6 5 4 3 3 2 1 1 2 3 5 2 5 5 6 8 9 9 9 10 10 8 9 8 9 8 7 7 8 8 7 7 6 5 6 5 6 6 6 5 4 5 5 5 4 2 7 13
9 8 8 7 7 7 7 7 7 7 6 6 6 6 5 4 3 3 3 3 2 1 1 3 2 2 2 2 3 3 5 5 5 6 11 7 8 7 8 7 7 7 7 7 8 5 3 3 4 5 5 6 5 3 5 4 4 5 4 4 8 13
8 8 8 8 7 7 7 6 6 6 6 5 5 4 4 4 4 4 2 3 2 1 4 4 2 7 6 2 1 3 2 2 3 4 5 3 1 2 5 6 6 8 7 6 4 2 3 4 4 5 5 4 5 4 5 6 5 4 5 4 9 13
8 8 8 7 7 8 7 8 7 6 6 5 5 5 4 4 4 4 3 2 1 1 1 1 3 3 4 5 0 2 1 3 4 6 1 3 2 2 3 1 3 4 4 5 4 5 4 4 6 5 5 6 5 5 5 6 5 5 6 6 7 15
9 9 8 8 8 7 6 7 7 7 5 6 5 5 5 4 4 3 3 2 3 3 4 1 5 3 3 1 4 4 2 2 5 1 5 4 2 3 2 2 2 3 4 5 6 6 5 5 4 5 7 6 6 5 6 7 6 6 6 6 4 12
10 10 8 9 8 8 7 7 7 6 5 6 5 4 4 5 3 3 2 1 4 1 2 1 3 2 3 3 0 4 3 2 3 5 3 3 4 2 2 3 2 4 4 4 5 5 5 6 5 5 6 5 8 8 7 6 7 8 7 6 7 9
10 9 9 8 7 7 7 7 7 6 6 5 4 5 5 4 4 4 1 2 2 2 1 3 2 2 3 4 1 1 0 2 1 2 4 2 5 3 3 4 3 3 5 5 5 5 5 6 7 7 7 8 7 7 7 7 8 8 8 7 8 6
9 9 9 8 7 8 8 7 6 7 6 5 5 5 4 4 2 3 4 1 2 2 2 2 2 4 2 2 1 2 1 3 2 2 3 1 2 4 2 3 3 4 5 7 7 6 7 6 6 8 7 8 7 7 6 7 7 8 9 8 8 7
9 8 7 8 8 8 8 8 8 6 6 6 5 2 3 3 3 4 3 2 2 1 1 2 3 2 3 3 2 2 2 3 2 2 2 3 2 3 4 5 6 5 3 5 5 6 7 8 8 8 8 8 8 7 8 7 10 9 8 9 9 6
10 10 9 9 8 7 6 7 7 7 7 7 5 5 3 5 3 4 4 3 2 2 1 2 2 2 3 2 2 1 2 2 2 2 3 3 4 3 3 3 4 5 4 1 6 5 7 6 6 9 9 9 8 8 10 11 6 7 7 6 8 8
9 9 9 7 7 7 7 6 7 6 6 7 6 6 5 4 3 4 4 4 3 3 3 3 3 3 1 1 1 2 3 2 3 3 2 2 3 3 4 4 6 5 5 4 5 5 4 5 6 7 6 4 6 9 8 11 8 10 9 6 8 7
7 7 7 7 7 6 6 6 7 7 6 6 5 5 5 5 4 4 4 4 3 3 3 3 3 2 2 2 2 2 2 3 3 3 3 3 3 3 3 5 4 6 6 6 6 6 7 7 7 7 7 8 8 8 7 9 5 8 7 6 4 1
5 6 5 5 5 6 7 7 6 7 7 7 6 6 5 5 4 4 5 4 4 3 3 3 3 2 1 1 1 1 2 2 3 3 3 3 3 3 3 4 5 5 5 7 6 7 6 7 7 8 8 8 7 8 9 9 11 10 10 9 1 4
6 3 5 6 6 6 7 7 7 7 8 7 6 6 5 4 4 4 4 4 3 3 3 3 3 2 2 1 2 2 2 2 3 3 3 4 5 3 2 3 4 5 5 6 7 8 7 6 7 7 8 8 8 9 9 10 8 10 8 10 9 7
3 2 1 4 6 7 7 7 7 7 7 7 7 6 5 5 5 4 4 4 4 4 3 3 3 3 1 4 4 3 4 4 4 4 4 4 4 5 5 4 5 6 5 6 7 7 8 7 7 8 8 9 9 8 9 9 10 10 9 10 9 7
2 5 5 7 6 7 7 6 6 7 7 7 6 6 6 5 5 5 5 5 5 5 5 5 5 4 4 3 3 3 4 5 4 4 4 4 4 5 4 5 6 6 6 6 7 8 7 7 8 8 8 9 9 10 9 9 9 9 9 9 9 9
3 3 4 6 5 4 5 8 6 7 6 6 6 7 6 6 6 6 6 6 6 6 6 6 6 6 5 4 4 4 3 4 4 4 4 5 5 5 7 7 8 8 8 8 7 7 7 7 8 9 9 9 9 9 10 9 8 9 8 9 9 8
3 1 1 4 7 3 5 4 4 6 7 6 7 7 7 7 7 7 8 7 7 7 7 7 7 7 6 5 4 5 4 4 5 4 5 6 6 7 7 7 7 7 8 8 8 7 7 7 8 8 7 8 8 8 9 8 8 7 7 8 8 8
1 3 2 7 5 2 2 1 4 6 6 7 8 8 8 7 7 7 7 7 7 7 7 7 7 7 7 7 6 5 5 6 7 6 6 6 7 7 8 8 7 7 7 8 7 8 7 8 8 8 10 9 9 7 5 5 5 5 7 8 8 8
2 2 1 7 6 0 2 4 5 6 7 8 8 7 8 7 6 7 7 7 7 7 8 7 8 8 8 9 9 8 7 7 8 8 7 7 8 8 9 9 10 9 9 8 8 6 8 8 9 9 10 9 8 8 5 2 1 7 7 8 8 8
2 3 3 3 1 5 6 9 8 8 9 8 8 8 8 7 7 7 8 7 8 8 8 8 9 10 8 9 9 9 8 8 8 9 8 8 8 9 10 9 10 10 9 9 9 10 9 10 9 10 9 8 10 8 8 2 8 8 10 8 5 6
3 6 2 4 1 6 8 10 9 10 9 9 8 6 6 6 6 6 7 8 8 9 9 8 8 9 8 9 9 8 9 9 9 9 8 7 7 8 8 8 8 8 10 9 9 9 10 10 11 9 9 7 6 6 7 10 12 10 5 6 9 10
4 3 5 6 5 3 4 7 8 8 8 7 6 6 6 6 6 6 7 6 6 7 6 6 7 7 8 6 6 7 7 7 7 6 6 5 6 6 7 8 8 7 8 9 9 8 8 8 9 10 8 7 6 6 10 12 11 9 11 10 9 9
6 3 3 2 6 3 4 6 6 6 7 7 7 6 5 5 6 6 5 6 6 8 9 8 8 8 7 7 6 7 7 6 6 5 5 5 5 6 6 6 7 7 7 8 9 8 9 9 9 7 9 9 10 9 10 10 10 11 13 11 9 9
3 5 5 6 6 6 6 7 7 7 7 7 7 7 6 6 6 6 6 6 5 6 8 8 8 7 7 7 6 6 7 6 6 6 6 7 7 7 7 7 7 8 7 7 7 7 8 8 9 8 10 10 10 10 9 10 10 10 10 13 14 12
7 6 7 8 8 8 8 7 6 6 6 5 6 5 5 5 6 6 6 5 5 6 7 7 7 7 7 7 7 7 7 7 7 7 6 6 6 7 8 7 8 8 8 8 7 9 8 8 9 9 10 9 10 9 9 8 9 9 9 11 12 13
8 6 7 8 9 9 8 7 7 6 7 6 5 5 5 5 5 5 6 6 5 6 5 6 6 7 7 7 7 7 7 8 8 7 7 7 7 8 7 7 7 7 8 8 7 7 7 8 8 8 9 9 9 9 9 8 8 10 10 9 11 13
9 7 7 8 9 9 8 7 6 7 7 6 6 5 5 5 5 5 5 6 6 5 6 6 5 5 7 7 7 8 7 7 7 7 7 7 7 7 6 6 7 7 8 8 7 7 7 7 8 7 8 7 8 8 9 10 10 10 11 11 11 12
9 9 8 8 9 9 8 8 8 7 6 5 5 5 5 6 5 6 6 6 5 5 5 5 5 6 6 7 7 7 7 7 7 7 7 6 6 7 6 6 7 7 6 7 7 7 7 8 9 7 8 7 7 7 7 8 9 9 9 10 11 12
10 9 9 9 8 9 8 7 7 7 6 5 5 6 6 6 6 6 5 6 6 5 5 5 5 6 7 7 6 7 7 7 6 6 7 7 6 7 7 6 7 7 7 7 7 7 7 8 8 8 7 7 6 6 6 6 7 8 8 9 10 11
9 9 8 8 8 9 8 7 7 6 6 6 6 7 6 6 6 6 6 6 6 6 5 6 6 6 6 6 6 7 7 7 7 7 7 7 6 7 7 6 7 7 7 6 7 8 7 7 7 7 6 6 7 6 6 6 7 7 8 9 10 11
8 9 8 8 7 8 7 8 6 6 7 6 6 7 7 7 7 7 7 7 6 5 6 6 6 6 6 6 6 6 7 7 7 7 7 7 6 6 7 6 7 7 7 6 7 7 7 7 7 8 8 8 7 7 7 8 7 7 7 8 8 10
8 8 8 8 7 7 7 7 7 8 8 7 7 7 7 7 7 7 8 7 7 6 6 6 6 6 6 6 6 6 6 7 7 7 7 8 8 7 7 6 7 7 8 6 6 9 7 8 8 8 8 9 7 7 8 8 8 8 8 8 8 9
8 8 7 7 7 7 8 8 8 7 8 8 8 9 8 9 9 8 8 7 7 7 6 6 5 5 5 6 6 6 6 6 7 7 7 8 8 7 7 6 7 8 8 8 7 8 7 8 8 8 8 9 8 7 8 8 8 8 9 9 8 9
Wind_Direction
131 137 133 127 126 128 130 131 131 127 130 132 141 148 144 142 145 151 159 161 163 185 151 130 166 134 160 130 115 132 129 116 102 97 103 95 114 117 125 131 294 309 279 276 247 199 192 186 186 198 224 247 258 266 264 298 285 181 262 118 157 101
134 137 131 127 122 128 150 163 144 144 146 149 159 157 159 160 163 157 171 162 192 193 207 151 159 173 161 128 141 137 142 138 138 129 124 146 139 145 177 196 251 269 282 252 232 197 178 193 203 210 227 243 250 256 248 264 278 275 242 196 100 125
138 132 127 127 129 138 150 153 152 148 144 163 159 172 168 167 158 161 158 161 133 133 213 138 119 19 75 104 131 156 149 163 159 167 180 173 168 169 174 190 235 257 260 257 237 223 185 182 188 202 240 246 252 253 293 295 270 300 251 76 109 135
129 132 139 133 139 149 149 153 155 158 155 161 164 173 164 157 155 141 145 118 155 150 118 88 68 24 156 151 147 179 182 188 188 186 189 195 193 188 176 192 196 238 247 232 219 219 202 197 178 185 210 233 244 241 233 220 241 234 308 180 126 144
139 136 136 140 146 147 151 165 147 155 160 166 162 163 165 155 147 147 141 152 101 103 137 109 168 226 192 201 162 193 192 213 201 205 187 210 198 174 189 177 182 207 221 233 231 223 243 196 189 201 228 243 247 260 257 247 248 283 228 230 129 151
141 147 146 156 145 141 165 143 142 158 158 157 159 162 155 149 151 160 134 129 143 51 9 352 180 192 185 148 94 269 287 256 265 215 189 226 160 179 197 194 175 190 220 242 265 285 247 254 229 215 235 216 255 246 247 266 259 213 257 256 150 156
146 147 154 141 137 158 156 148 158 154 150 148 154 161 156 141 133 135 134 108 109 3 313 269 317 328 334 73 178 226 111 301 315 318 277 277 148 212 274 201 224 220 243 251 249 244 231 236 265 278 240 244 233 254 267 260 261 251 242 245 158 165
151 152 144 148 166 146 136 144 147 149 159 141 153 149 138 144 129 136 149 163 90 199 195 99 322 356 353 35 197 221 114 253 270 240 275 266 196 221 223 293 304 274 227 238 241 241 243 252 222 255 301 300 291 260 270 283 281 285 284 263 200 170
150 150 148 162 157 148 148 151 148 151 141 152 149 146 127 142 149 101 107 157 125 344 53 331 211 203 216 289 110 288 100 254 254 255 316 318 332 324 249 255 262 274 246 236 243 231 244 257 262 252 242 248 270 283 271 278 273 271 265 261 263 174
154 151 153 164 148 144 147 149 151 144 139 161 141 121 150 139 120 168 183 120 46 10 192 182 239 227 260 221 253 234 85 283 215 304 276 82 273 332 332 296 279 261 288 283 246 238 227 243 251 244 251 254 247 255 259 256 261 262 270 272 262 182
151 153 159 151 154 155 151 144 147 142 153 141 132 137 142 143 162 126 140 43 88 118 332 40 305 322 233 295 342 294 155 216 266 89 290 49 20 282 323 275 272 314 343 303 322 321 290 282 268 266 251 250 252 254 259 256 266 271 269 275 271 257
152 161 158 151 158 156 153 147 151 145 142 119 141 156 128 14 133 112 92 107 88 12 346 41 342 284 342 317 343 344 351 340 334 5 360 351 322 346 302 351 330 305 273 275 293 301 309 301 292 289 290 291 290 279 259 265 263 272 257 263 275 279
162 164 161 165 160 154 152 149 149 150 137 155 165 127 119 147 121 97 101 92 67 78 13 30 29 6 331 3 0 303 343 0 346 1 352 342 320 299 295 249 232 246 251 305 289 310 294 280 294 285 287 294 276 268 278 276 269 252 285 257 257 289
168 164 167 165 163 153 156 153 152 142 137 151 141 141 148 125 131 103 100 86 86 51 41 39 23 28 354 359 44 358 6 6 9 347 321 331 312 319 316 317 314 325 304 294 281 249 240 263 285 300 283 264 285 289 304 296 306 308 286 289 303 297
162 168 169 165 172 149 157 160 142 139 149 138 131 123 123 116 118 131 114 100 73 64 43 59 57 20 25 338 17 29 349 17 5 337 321 15 320 326 316 320 314 313 323 309 293 296 301 303 296 282 294 300 304 307 295 280 278 278 282 292 286 247
161 171 171 159 186 159 166 151 135 131 144 135 127 120 120 120 117 119 117 104 92 83 72 72 48 46 1 40 15 352 37 8 346 323 339 335 310 323 339 314 323 314 314 309 308 303 306 301 302 294 295 294 293 284 274 278 278 276 287 282 202 234
170 155 173 199 179 160 160 139 133 134 128 128 119 117 116 117 107 92 86 93 102 93 82 62 81 68 30 16 42 6 53 8 302 316 325 339 329 335 315 326 317 310 304 302 304 303 296 292 289 294 291 289 287 283 287 287 285 286 287 280 283 273
8 202 289 252 206 170 139 129 130 130 120 116 114 112 109 100 91 88 90 95 95 91 73 64 53 65 29 6 26 357 25 6 338 347 5 358 300 307 353 341 315 308 306 300 300 304 303 300 296 293 287 282 282 278 279 278 283 285 282 282 282 279
182 303 310 273 224 138 131 122 120 111 113 109 104 92 92 93 102 99 89 80 79 72 71 57 46 34 52 41 56 11 29 358 359 353 8 338 327 3 338 336 322 315 313 303 302 299 296 299 300 295 294 289 284 280 279 280 281 280 282 288 290 284
149 163 277 293 264 159 147 136 128 122 102 96 101 100 93 91 87 78 70 67 68 57 53 52 45 42 34 28 26 30 30 10 15 359 359 357 350 347 344 332 329 327 317 312 302 302 305 309 302 295 289 283 279 280 273 274 275 279 284 286 284 286
156 144 53 239 272 202 136 111 117 108 119 111 94 90 83 78 75 70 64 60 52 51 44 40 35 32 27 23 22 18 8 15 10 359 357 354 346 340 342 334 323 318 320 314 310 316 319 316 307 297 298 299 296 288 276 267 265 265 279 285 290 291
82 64 258 277 267 293 76 72 118 118 110 108 106 92 89 79 73 70 64 59 54 44 45 37 28 25 19 18 15 12 4 5 4 360 0 2 341 347 343 341 347 330 326 319 316 321 326 325 314 322 320 319 304 295 295 268 250 289 289 283 281 279
127 101 359 259 207 4 323 99 101 106 104 96 87 91 92 84 76 76 68 59 52 43 40 35 29 26 21 18 13 16 15 19 20 4 356 356 352 358 0 353 354 347 336 326 315 321 336 335 319 325 311 299 314 319 303 83 322 249 256 267 275 278
129 139 230 320 317 147 123 100 95 91 89 92 101 103 99 98 91 82 71 60 54 47 40 34 27 24 21 22 20 13 9 17 13 13 5 358 356 359 356 352 357 351 342 332 336 335 335 336 335 335 326 331 313 302 306 345 336 322 299 294 294 288
189 170 182 215 172 115 114 106 100 100 104 108 111 108 108 96 90 82 71 51 46 44 44 41 38 33 25 22 16 16 12 13 11 11 11 358 357 353 342 337 356 349 340 335 326 327 320 336 341 340 335 332 328 315 337 329 333 308 315 321 304 297
48 8 176 206 160 142 126 115 125 127 123 119 116 116 103 103 93 76 76 79 65 57 50 34 36 42 36 30 22 18 19 9 5 8 3 354 353 346 346 342 351 341 336 330 326 319 323 329 335 330 347 352 331 319 322 323 317 314 321 299 306 314
190 183 140 151 130 180 107 103 99 105 116 118 116 99 92 88 86 79 80 71 58 41 35 41 37 29 29 22 15 17 16 11 3 1 347 353 358 352 345 347 347 344 339 338 341 329 336 335 329 338 347 339 331 326 321 320 320 316 310 316 311 313
105 136 98 80 72 70 87 72 71 78 87 85 91 96 89 78 80 86 75 66 71 61 43 34 32 31 22 23 19 22 21 17 7 4 354 15 5 4 355 355 357 354 351 349 343 340 335 338 342 332 345 335 335 326 324 319 316 313 306 309 313 317
115 89 79 68 62 60 65 67 71 84 81 81 88 97 100 94 86 81 75 65 59 72 70 48 36 30 30 33 30 33 31 28 21 15 14 20 9 11 7 4 10 359 8 356 353 358 350 350 343 343 338 338 328 329 330 326 325 328 321 315 307 313
92 76 79 76 70 67 65 68 77 92 102 106 109 101 103 105 103 92 82 76 68 60 58 57 48 37 32 40 35 33 34 31 25 20 16 14 8 8 8 7 13 1 17 3 11 5 6 1 350 348 346 338 338 340 337 337 335 333 324 318 312 312
85 80 73 82 77 73 72 72 76 71 82 95 102 109 111 111 108 104 92 83 77 69 60 55 52 46 34 35 37 36 31 31 29 19 16 12 10 7 0 11 11 11 23 11 14 1 17 10 359 357 352 346 345 346 341 334 339 339 329 320 317 312
90 83 79 77 82 79 80 84 82 80 77 88 104 101 97 96 93 93 94 96 91 80 69 67 58 50 38 30 37 35 30 30 30 22 18 13 14 8 1 16 20 12 20 17 15 6 18 10 6 358 359 351 350 346 346 347 344 337 333 328 323 315
88 84 79 75 76 81 81 78 79 82 80 71 81 96 100 93 90 92 90 85 79 76 73 65 52 53 43 37 36 37 35 30 28 25 20 14 18 15 0 26 24 16 23 15 16 7 20 7 14 1 356 352 345 345 357 354 344 338 335 332 326 321
90 82 80 78 79 80 75 73 77 84 92 93 88 87 90 92 91 90 91 91 87 84 80 68 60 50 43 43 43 41 36 35 29 27 23 19 21 21 10 22 29 19 21 15 13 7 20 10 12 2 359 350 349 346 355 354 343 340 344 338 336 331
91 79 76 76 72 74 78 73 79 86 91 94 97 97 93 91 91 95 92 90 86 79 73 68 61 55 48 47 46 43 39 33 33 27 28 25 20 29 21 24 33 22 22 9 14 13 11 10 10 4 4 359 348 358 360 0 343 350 343 344 334 331
92 88 81 76 74 70 72 82 87 91 91 93 99 100 98 96 93 88 92 89 80 73 74 73 63 59 51 45 41 44 43 41 31 32 29 28 27 26 26 25 30 25 21 9 15 18 13 9 10 360 6 357 355 2 10 355 350 350 348 348 337 334
99 92 85 85 83 82 82 83 83 86 92 95 95 94 94 94 92 91 86 82 79 78 75 68 69 59 56 52 46 39 46 37 36 33 30 27 28 26 26 26 24 25 16 10 13 18 13 11 9 2 7 0 359 3 11 351 357 355 349 344 341 336